Date String (YYYY-MM-DD hh:mm:ss) UTC,Instrument flags,absolute air pressure of the measurement (hPa),sample flow rate (lpm),inlet stack bypass flow (lpm),air temperature of the measurement (°C),ambient temperature measured by the external sensor (°C),aerosol sample conditioner tube jacket temperature (°C),OPC LED temperature (°C),internal box temperature (°C),relative humidity of the measurement (%),span deviation,mass concentration of particles derived from Lorenz-Mie calculation of OPC scattering (μg/m³),mass concentration of particles derived from Lorenz-Mie calculation of OPC scattering (μg/m³),mass concentration of particles derived from Lorenz-Mie calculation of OPC scattering (μg/m³)
DateTimeUTC,F1_M11,P_M11,Q1_M11,Q2_M11,T1_M11,T2_M11,T3_M11,T4_M11,T5_M11,U1_M11,ZSPAN_M11,X0_M11,X2_M11,X1_M11
2024-06-05 22:00:00,SystemResetWarning,0827.3,5.01,000.00,028.7,025.7,000.0,037.3,029.4,016.6,0000.0,0003.54,0001.30,0000.68
2024-06-05 22:01:00,SystemResetWarning,0827.3,5.01,000.00,028.6,026.0,000.0,037.3,029.6,016.8,0000.0,0003.47,0001.28,0000.68
2024-06-05 22:02:00,SystemResetWarning,0827.3,4.99,000.00,028.6,026.5,000.0,037.2,029.9,017.4,0000.0,0004.42,0001.25,0000.68
2024-06-05 22:03:00,SystemResetWarning,0827.4,5.00,000.00,028.6,027.0,000.0,037.1,030.1,016.7,0000.0,0004.94,0001.27,0000.68
2024-06-05 22:04:00,SystemResetWarning,0827.3,5.00,000.00,028.7,027.4,000.0,037.1,030.3,016.6,0000.0,0006.46,0001.30,0000.70
2024-06-05 22:05:00,SystemResetWarning,0827.4,5.00,000.00,028.7,027.8,000.0,037.1,030.5,016.8,0000.0,0007.09,0001.34,0000.71
2024-06-05 22:06:00,SystemResetWarning,0827.4,5.00,000.00,028.8,028.1,000.0,037.1,030.6,017.1,0000.0,0007.15,0001.37,0000.71
2024-06-05 22:07:00,SystemResetWarning,0827.3,4.99,000.00,028.9,028.4,000.0,037.1,030.8,017.2,0000.0,0007.17,0001.39,0000.71
2024-06-05 22:08:00,SystemResetWarning,0827.4,5.00,000.00,029.0,028.6,000.0,037.1,030.9,016.4,0000.0,0006.72,0001.36,0000.71
2024-06-05 22:09:00,SystemResetWarning,0827.4,5.00,000.00,029.1,028.9,000.0,037.2,031.0,016.2,0000.0,0006.35,0001.36,0000.71
2024-06-05 22:10:00,SystemResetWarning,0827.3,5.00,000.00,029.2,028.6,000.0,037.2,030.9,016.5,0000.0,0006.48,0001.41,0000.72
2024-06-05 22:11:00,SystemResetWarning,0827.2,5.01,000.00,028.9,026.5,000.0,037.3,029.8,016.9,0000.0,0006.55,0001.43,0000.73
2024-06-05 22:12:00,SystemResetWarning,0827.2,5.02,000.00,028.6,025.6,000.0,037.3,029.4,016.6,0000.0,0006.72,0001.45,0000.74
2024-06-05 22:13:00,SystemResetWarning,0827.2,4.99,000.00,028.5,026.2,000.0,037.2,029.6,016.9,0000.0,0005.97,0001.43,0000.74
2024-06-05 22:14:00,SystemResetWarning,0827.2,5.00,000.00,028.5,026.7,000.0,037.1,029.9,017.1,0000.0,0005.76,0001.43,0000.75
2024-06-05 22:15:00,SystemResetWarning,0827.2,5.00,000.00,028.6,027.1,000.0,037.1,030.2,017.6,0000.0,0004.37,0001.46,0000.76
2024-06-05 22:16:00,SystemResetWarning,0827.2,5.00,000.00,028.7,027.5,000.0,037.1,030.4,016.6,0000.0,0003.65,0001.45,0000.75
2024-06-05 22:17:00,SystemResetWarning,0827.2,5.00,000.00,028.8,027.9,000.0,037.1,030.5,016.2,0000.0,0003.68,0001.43,0000.76
2024-06-05 22:18:00,SystemResetWarning,0827.2,5.01,000.00,028.8,028.2,000.0,037.1,030.7,016.1,0000.0,0003.68,0001.42,0000.77
2024-06-05 22:19:00,SystemResetWarning,0827.3,4.99,000.00,028.9,028.5,000.0,037.1,030.8,015.5,0000.0,0004.15,0001.41,0000.78
2024-06-05 22:20:00,SystemResetWarning,0827.3,5.00,000.00,029.0,028.7,000.0,037.1,030.9,015.4,0000.0,0006.26,0001.42,0000.79
2024-06-05 22:21:00,SystemResetWarning,0827.3,5.00,000.00,029.1,028.9,000.0,037.2,031.0,015.7,0000.0,0006.35,0001.41,0000.79
2024-06-05 22:22:00,SystemResetWarning,0827.3,4.99,000.00,029.1,028.2,000.0,037.2,030.6,015.7,0000.0,0007.20,0001.41,0000.78
2024-06-05 22:23:00,SystemResetWarning,0827.2,5.00,000.00,028.8,026.1,000.0,037.3,029.6,015.9,0000.0,0007.61,0001.42,0000.78
2024-06-05 22:24:00,SystemResetWarning,0827.2,5.02,000.00,028.5,025.7,000.0,037.3,029.4,016.0,0000.0,0007.90,0001.43,0000.77
2024-06-05 22:25:00,SystemResetWarning,0827.2,5.00,000.00,028.5,026.3,000.0,037.2,029.7,016.0,0000.0,0008.11,0001.40,0000.77
2024-06-05 22:26:00,SystemResetWarning,0827.2,4.99,000.00,028.5,026.7,000.0,037.1,030.0,016.1,0000.0,0007.97,0001.36,0000.77
2024-06-05 22:27:00,SystemResetWarning,0827.2,5.00,000.00,028.6,027.2,000.0,037.0,030.2,015.6,0000.0,0008.02,0001.36,0000.76
2024-06-05 22:28:00,SystemResetWarning,0827.3,5.01,000.00,028.7,027.6,000.0,037.0,030.4,015.7,0000.0,0007.98,0001.34,0000.75
2024-06-05 22:29:00,SystemResetWarning,0827.2,4.99,000.00,028.8,028.0,000.0,037.0,030.6,016.4,0000.0,0008.03,0001.34,0000.74
2024-06-05 22:30:00,SystemResetWarning,0827.2,4.99,000.00,028.9,028.3,000.0,037.0,030.7,016.5,0000.0,0007.92,0001.35,0000.75
2024-06-05 22:31:00,SystemResetWarning,0827.2,4.99,000.00,029.0,028.6,000.0,037.1,030.8,017.0,0000.0,0006.62,0001.37,0000.76
2024-06-05 22:32:00,SystemResetWarning,0827.3,5.00,000.00,029.1,028.8,000.0,037.1,030.9,016.9,0000.0,0007.54,0001.37,0000.75
2024-06-05 22:33:00,SystemResetWarning,0827.2,4.99,000.00,029.1,028.5,000.0,037.2,030.8,016.3,0000.0,0006.76,0001.34,0000.74
2024-06-05 22:34:00,SystemResetWarning,0827.2,5.01,000.00,028.8,026.4,000.0,037.2,029.8,016.2,0000.0,0006.14,0001.28,0000.74
2024-06-05 22:35:00,SystemResetWarning,0827.2,5.02,000.00,028.5,025.6,000.0,037.2,029.4,017.2,0000.0,0006.56,0001.29,0000.74
2024-06-05 22:36:00,SystemResetWarning,0827.2,5.00,000.00,028.5,026.2,000.0,037.2,029.6,017.6,0000.0,0006.40,0001.30,0000.73
2024-06-05 22:37:00,SystemResetWarning,0827.1,5.00,000.00,028.5,026.7,000.0,037.1,029.9,017.7,0000.0,0007.29,0001.34,0000.72
2024-06-05 22:38:00,SystemResetWarning,0827.2,4.99,000.00,028.6,027.1,000.0,037.0,030.1,018.0,0000.0,0007.29,0001.38,0000.73
2024-06-05 22:39:00,SystemResetWarning,0827.2,5.00,000.00,028.6,027.5,000.0,037.0,030.3,017.8,0000.0,0007.39,0001.46,0000.73
2024-06-05 22:40:00,SystemResetWarning,0827.1,5.00,000.00,028.7,027.9,000.0,037.0,030.5,017.1,0000.0,0007.39,0001.51,0000.74
2024-06-05 22:41:00,SystemResetWarning,0827.2,4.99,000.00,028.8,028.2,000.0,037.0,030.7,017.6,0000.0,0007.54,0001.55,0000.74
2024-06-05 22:42:00,SystemResetWarning,0827.1,4.99,000.00,028.9,028.5,000.0,037.0,030.8,016.9,0000.0,0008.54,0001.53,0000.73
2024-06-05 22:43:00,SystemResetWarning,0827.2,5.01,000.00,029.0,028.7,000.0,037.1,030.9,016.9,0000.0,0008.10,0001.56,0000.73
2024-06-05 22:44:00,SystemResetWarning,0827.2,5.01,000.00,029.1,028.9,000.0,037.1,031.0,016.9,0000.0,0008.31,0001.58,0000.74
2024-06-05 22:45:00,SystemResetWarning,0827.2,4.99,000.00,029.1,028.0,000.0,037.2,030.5,017.1,0000.0,0008.39,0001.63,0000.75
2024-06-05 22:46:00,SystemResetWarning,0827.1,5.00,000.00,028.8,025.8,000.0,037.2,029.5,017.0,0000.0,0008.06,0001.66,0000.75
2024-06-05 22:47:00,SystemResetWarning,0827.1,5.02,000.00,028.5,025.6,000.0,037.2,029.4,017.4,0000.0,0007.94,0001.70,0000.76
2024-06-05 22:48:00,SystemResetWarning,0827.2,4.98,000.00,028.5,026.2,000.0,037.1,029.7,017.9,0000.0,0007.46,0001.67,0000.77
2024-06-05 22:49:00,SystemResetWarning,0827.2,4.99,000.00,028.5,026.7,000.0,037.0,029.9,018.2,0000.0,0007.28,0001.61,0000.76
2024-06-05 22:50:00,SystemResetWarning,0827.2,5.01,000.00,028.6,027.2,000.0,037.0,030.2,018.1,0000.0,0007.43,0001.58,0000.76
2024-06-05 22:51:00,SystemResetWarning,0827.2,5.01,000.00,028.7,027.6,000.0,037.0,030.4,017.6,0000.0,0007.41,0001.54,0000.75
2024-06-05 22:52:00,SystemResetWarning,0827.2,4.99,000.00,028.7,028.0,000.0,037.0,030.5,017.7,0000.0,0007.16,0001.49,0000.74
2024-06-05 22:53:00,SystemResetWarning,0827.2,5.00,000.00,028.8,028.3,000.0,037.0,030.7,018.0,0000.0,0005.04,0001.47,0000.74
2024-06-05 22:54:00,SystemResetWarning,0827.2,5.00,000.00,028.9,028.5,000.0,037.0,030.8,017.8,0000.0,0004.50,0001.46,0000.73
2024-06-05 22:55:00,SystemResetWarning,0827.2,5.01,000.00,029.0,028.7,000.0,037.1,030.9,017.5,0000.0,0005.20,0001.46,0000.73
2024-06-05 22:56:00,SystemResetWarning,0827.2,5.01,000.00,029.1,028.9,000.0,037.1,031.0,017.6,0000.0,0007.11,0001.43,0000.73
2024-06-05 22:57:00,SystemResetWarning,0827.2,4.98,000.00,029.0,027.4,000.0,037.2,030.3,017.0,0000.0,0007.80,0001.46,0000.73
2024-06-05 22:58:00,SystemResetWarning,0827.2,5.01,000.00,028.6,025.5,000.0,037.2,029.4,017.6,0000.0,0007.66,0001.42,0000.73
2024-06-05 22:59:00,SystemResetWarning,0827.1,5.01,000.00,028.5,025.8,000.0,037.2,029.5,017.8,0000.0,0007.68,0001.42,0000.72
